This is the latest recevied weather packets stored in our database for station/object SV9FBP-13. If no packets are shown the sender has not sent any weather packets the latest 10 day(s).
| Time | Temp. | Humidity | Pressure | Rain* | Wind** | Luminosity | Snow |
|---|---|---|---|---|---|---|---|
| 1788356050 | 33.89° C | 41% | 1009.5 hPa | 0 mm | - | - | - |
| 1788355149 | 33.33° C | 46% | 1009.4 hPa | 0 mm | - | - | - |
| 1788354247 | 33.33° C | 46% | 1009.3 hPa | 0 mm | - | - | - |
| 1788353345 | 33.33° C | 47% | 1009.5 hPa | 0 mm | - | - | - |
| 1788352442 | 35.56° C | 40% | 1009.4 hPa | 0 mm | - | - | - |
| 1788351541 | 35.56° C | 30% | 1009.5 hPa | 0 mm | - | - | - |
| 1788350638 | 35° C | 30% | 1009.5 hPa | 0 mm | - | - | - |
| 1788349736 | 35° C | 30% | 1009.7 hPa | 0 mm | - | - | - |
| 1788348833 | 34.44° C | 30% | 1009.9 hPa | 0 mm | - | - | - |
| 1788347932 | 34.44° C | 31% | 1009.6 hPa | 0 mm | - | - | - |
| 1788347030 | 34.44° C | 30% | 1009.8 hPa | 0 mm | - | - | - |
| 1788346130 | 35° C | 30% | 1009.8 hPa | 0 mm | - | - | - |
| 1788345225 | 34.44° C | 30% | 1009.8 hPa | 0 mm | - | - | - |
| 1788344324 | 34.44° C | 30% | 1010.1 hPa | - | - | - | - |
| 1788344259 | 34.44° C | 30% | 1010.1 hPa | - | - | - | - |
| 1788344167 | 34.44° C | 30% | 1010.1 hPa | - | - | - | - |
| 1788343729 | 34.44° C | 28% | 1009.9 hPa | 0 mm | - | - | - |
| 1788342827 | 35° C | 29% | 1010 hPa | 0 mm | - | - | - |
| 1788341924 | 35° C | 28% | 1010 hPa | 0 mm | - | - | - |
| 1788341023 | 35° C | 28% | 1010.1 hPa | 0 mm | - | - | - |
| 1788340120 | 35° C | 26% | 1010.1 hPa | 0 mm | - | - | - |
| 1788339219 | 34.44° C | 29% | 1010.1 hPa | 0 mm | - | - | - |
| 1788338316 | 34.44° C | 26% | 1010.4 hPa | 0 mm | - | - | - |
| 1788337414 | 33.89° C | 28% | 1010.4 hPa | 0 mm | - | - | - |
| 1788336512 | 33.33° C | 30% | 1010.3 hPa | 0 mm | - | - | - |
* Rain latest hour (hover to see other rain measurements)
** Current wind speed in m/s (hover to see current wind gust speed)